User: anonymous   Login
Location: Unspecified
(0.0000°N, 0.0000°E)
Time: 20:33:49
(UTC+00:00)
Language:

WGS 5 (USA 243) - Orbit

View from above orbital plane
View from above orbital plane
View from above satellite
View from above satellite

Ground track
Ground track

The orbit data is extracted from the following two-line orbital elements,

1 39168U 13024A   21137.34354815 -.00000277  00000-0  00000+0 0  9990
2 39168   0.0131 302.1889 0000348  13.0888 351.1757  1.00271584 29208
Epoch (UTC): 17 May 2021 08:14:42
Eccentricity: 0.0000348
inclination: 0.0131°
perigee height: 35785 km
apogee height: 35788 km
right ascension of ascending node: 302.1889°
argument of perigee: 13.0888°
revolutions per day: 1.00271584
mean anomaly at epoch: 351.1757°
orbit number at epoch: 2920

The dashed part of the orbit path shows where the satellite is in the earth's shadow,  

DLR